This is the latest recevied weather packets stored in our database for station/object JG6YPS-13. If no packets are shown the sender has not sent any weather packets the latest 10 day(s).
| Time | Temp. | Humidity | Pressure | Rain* | Wind** | Luminosity | Snow |
|---|---|---|---|---|---|---|---|
| 1777895302 | 13.89° C | 72% | 1017.3 hPa | 0 mm | - | - | - |
| 1777894702 | 13.89° C | 70% | 1017.1 hPa | 0 mm | - | - | - |
| 1777894103 | 13.89° C | 67% | 1016.9 hPa | 0 mm | - | - | - |
| 1777893503 | 14.44° C | 67% | 1016.9 hPa | 0 mm | - | - | - |
| 1777892904 | 14.44° C | 65% | 1016.7 hPa | 0 mm | - | - | - |
| 1777892304 | 13.89° C | 66% | 1016.5 hPa | 0 mm | - | - | - |
| 1777891705 | 14.44° C | 62% | 1016.2 hPa | 0 mm | - | - | - |
| 1777891105 | 14.44° C | 60% | 1016 hPa | 0 mm | - | - | - |
| 1777890506 | 15° C | 59% | 1015.9 hPa | 0 mm | - | - | - |
| 1777889907 | 15° C | 58% | 1015.8 hPa | 0 mm | - | - | - |
| 1777889307 | 15.56° C | 56% | 1015.8 hPa | 0 mm | - | - | - |
| 1777888708 | 15.56° C | 56% | 1015.5 hPa | 0 mm | - | - | - |
| 1777888108 | 16.11° C | 54% | 1015.4 hPa | 0 mm | - | - | - |
| 1777887509 | 16.11° C | 53% | 1015.2 hPa | 0 mm | - | - | - |
| 1777886910 | 16.67° C | 52% | 1015.1 hPa | 0 mm | - | - | - |
| 1777886311 | 16.67° C | 48% | 1015 hPa | 0 mm | - | - | - |
| 1777885711 | 17.22° C | 49% | 1014.9 hPa | 0 mm | - | - | - |
| 1777885112 | 17.22° C | 47% | 1014.9 hPa | 0 mm | - | - | - |
| 1777884512 | 16.67° C | 48% | 1014.8 hPa | 0 mm | - | - | - |
| 1777883913 | 16.67° C | 49% | 1014.6 hPa | 0 mm | - | - | - |
| 1777883314 | 17.22° C | 47% | 1014.4 hPa | 0 mm | - | - | - |
| 1777882714 | 17.78° C | 44% | 1014.4 hPa | 0 mm | - | - | - |
| 1777882115 | 17.78° C | 46% | 1014.5 hPa | 0 mm | - | - | - |
| 1777881515 | 17.78° C | 46% | 1014.4 hPa | 0 mm | - | - | - |
| 1777880916 | 17.78° C | 46% | 1014.4 hPa | 0 mm | - | - | - |
* Rain latest hour (hover to see other rain measurements)
** Current wind speed in m/s (hover to see current wind gust speed)